| time (UTC) | temp F | wind direction | speed MPH | gust MPH | rain 1hr in | rain 24hr in | rain mn in | humidity % | barometer mb |
| 20260509021524 | 45 | 49 | 2.0 | 6.0 | 0.00 | 0.00 | 0.00 | 82 | 1021.8 |
| 20260509020013 | 45 | 69 | 5.0 | 11.0 | 0.00 | 0.00 | 0.00 | 82 | 1021.7 |
| 20260509014547 | 45 | 65 | 3.0 | 10.0 | 0.00 | 0.00 | 0.00 | 83 | 1021.6 |
| 20260509013121 | 45 | 65 | 6.0 | 12.0 | 0.00 | 0.00 | 0.00 | 83 | 1021.5 |
| 20260509011601 | 46 | 51 | 1.0 | 6.0 | 0.00 | 0.00 | 0.00 | 83 | 1021.5 |
| 20260509010119 | 46 | 63 | 4.0 | 9.0 | 0.00 | 0.00 | 0.00 | 82 | 1021.5 |
| 20260509004533 | 46 | 57 | 5.0 | 16.0 | 0.00 | 0.00 | 0.00 | 82 | 1021.5 |
| 20260509003002 | 46 | 79 | 3.0 | 12.0 | 0.00 | 0.00 | 0.00 | 82 | 1021.4 |
| 20260509001531 | 47 | 84 | 3.0 | 11.0 | 0.00 | 0.00 | 0.00 | 80 | 1021.2 |
| 20260509000101 | 48 | 82 | 4.0 | 11.0 | 0.00 | 0.00 | 0.00 | 77 | 1021.1 |
| 20260508234558 | 47 | 11 | 1.0 | 9.0 | 0.00 | 0.00 | 0.00 | 74 | 1021.1 |
| 20260508233116 | 47 | 306 | 4.0 | 9.0 | 0.00 | 0.00 | 0.00 | 72 | 1021.0 |
| 20260508231519 | 47 | 281 | 1.0 | 6.0 | 0.00 | 0.00 | 0.00 | 72 | 1020.6 |
| 20260508230055 | 47 | 252 | 2.0 | 6.0 | 0.00 | 0.00 | 0.00 | 71 | 1020.4 |
| 20260508224557 | 47 | 272 | 2.0 | 8.0 | 0.00 | 0.00 | 0.00 | 71 | 1020.3 |
| 20260508223056 | 47 | 250 | 2.0 | 6.0 | 0.00 | 0.00 | 0.00 | 71 | 1020.3 |
| 20260508221556 | 47 | 261 | 2.0 | 5.0 | 0.00 | 0.00 | 0.00 | 71 | 1020.2 |
| 20260508220119 | 47 | 280 | 2.0 | 7.0 | 0.00 | 0.00 | 0.00 | 70 | 1020.0 |
| 20260508214522 | 48 | 275 | 2.0 | 6.0 | 0.00 | 0.00 | 0.00 | 69 | 1019.8 |
| 20260508213106 | 48 | 242 | 2.0 | 6.0 | 0.00 | 0.00 | 0.00 | 69 | 1019.6 |
| 20260508211551 | 48 | 263 | 1.0 | 7.0 | 0.00 | 0.00 | 0.00 | 69 | 1019.6 |
| 20260508210112 | 48 | 265 | 1.0 | 4.0 | 0.00 | 0.00 | 0.00 | 68 | 1019.5 |
| 20260508204519 | 49 | 269 | 2.0 | 4.0 | 0.00 | 0.00 | 0.00 | 68 | 1019.4 |
| 20260508203132 | 49 | 265 | 2.0 | 4.0 | 0.00 | 0.00 | 0.00 | 68 | 1019.2 |
| 20260508201534 | 49 | 257 | 1.0 | 3.0 | 0.00 | 0.00 | 0.00 | 68 | 1019.1 |
| 20260508200056 | 49 | 244 | 1.0 | 3.0 | 0.00 | 0.00 | 0.00 | 68 | 1019.0 |
| 20260508194546 | 51 | 250 | 0.0 | 2.0 | 0.00 | 0.00 | 0.00 | 67 | 1018.8 |
| 20260508193136 | 52 | 250 | 0.0 | 2.0 | 0.00 | 0.00 | 0.00 | 66 | 1018.7 |
| 20260508191600 | 53 | 250 | 0.0 | 4.0 | 0.00 | 0.00 | 0.00 | 65 | 1018.6 |
| 20260508190119 | 53 | 240 | 0.0 | 2.0 | 0.00 | 0.00 | 0.00 | 64 | 1018.5 |
| 20260508184528 | 54 | 244 | 1.0 | 3.0 | 0.00 | 0.00 | 0.00 | 63 | 1018.2 |
| 20260508183012 | 54 | 243 | 1.0 | 4.0 | 0.00 | 0.00 | 0.00 | 62 | 1018.1 |
| 20260508181540 | 55 | 236 | 2.0 | 6.0 | 0.00 | 0.00 | 0.00 | 60 | 1017.9 |
| 20260508180106 | 56 | 239 | 2.0 | 7.0 | 0.00 | 0.00 | 0.00 | 59 | 1017.8 |
| 20260508174611 | 56 | 267 | 2.0 | 7.0 | 0.00 | 0.00 | 0.00 | 58 | 1017.7 |
| 20260508173129 | 56 | 261 | 3.0 | 11.0 | 0.00 | 0.00 | 0.00 | 59 | 1017.5 |
| 20260508171510 | 56 | 315 | 4.0 | 7.0 | 0.00 | 0.00 | 0.00 | 59 | 1017.3 |
| 20260508170052 | 56 | 207 | 2.0 | 8.0 | 0.00 | 0.00 | 0.00 | 59 | 1017.2 |
| 20260508164602 | 56 | 253 | 3.0 | 9.0 | 0.00 | 0.00 | 0.00 | 59 | 1017.1 |
| 20260508163113 | 56 | 252 | 1.0 | 8.0 | 0.00 | 0.00 | 0.00 | 61 | 1017.0 |
| 20260508161536 | 56 | 229 | 2.0 | 6.0 | 0.00 | 0.00 | 0.00 | 61 | 1016.9 |
| 20260508160013 | 56 | 308 | 1.0 | 7.0 | 0.00 | 0.00 | 0.00 | 61 | 1016.9 |
| 20260508154552 | 56 | 284 | 3.0 | 8.0 | 0.00 | 0.00 | 0.00 | 61 | 1016.9 |
| 20260508153119 | 56 | 215 | 2.0 | 6.0 | 0.00 | 0.00 | 0.00 | 61 | 1016.9 |
| 20260508151535 | 56 | 271 | 2.0 | 9.0 | 0.00 | 0.00 | 0.00 | 62 | 1016.8 |
| 20260508150016 | 56 | 229 | 2.0 | 9.0 | 0.00 | 0.00 | 0.00 | 60 | 1016.8 |
| 20260508144543 | 57 | 258 | 2.0 | 9.0 | 0.00 | 0.00 | 0.00 | 58 | 1016.7 |
| 20260508143105 | 57 | 232 | 3.0 | 9.0 | 0.00 | 0.00 | 0.00 | 58 | 1016.6 |
| 20260508141603 | 56 | 226 | 4.0 | 9.0 | 0.00 | 0.00 | 0.00 | 61 | 1016.6 |
| 20260508140121 | 55 | 290 | 3.0 | 8.0 | 0.00 | 0.00 | 0.00 | 62 | 1016.6 |
| 20260508134525 | 55 | 245 | 4.0 | 8.0 | 0.00 | 0.00 | 0.00 | 62 | 1016.6 |
| 20260508133112 | 55 | 236 | 4.0 | 10.0 | 0.00 | 0.00 | 0.00 | 63 | 1016.6 |
| 20260508131557 | 54 | 262 | 4.0 | 10.0 | 0.00 | 0.00 | 0.00 | 63 | 1016.6 |
| 20260508130119 | 55 | 246 | 3.0 | 10.0 | 0.00 | 0.00 | 0.00 | 66 | 1016.4 |
| 20260508124501 | 55 | 272 | 4.0 | 13.0 | 0.00 | 0.00 | 0.00 | 66 | 1016.4 |
| 20260508123013 | 55 | 165 | 4.0 | 9.0 | 0.00 | 0.00 | 0.00 | 66 | 1016.2 |
| 20260508121558 | 56 | 236 | 4.0 | 13.0 | 0.00 | 0.00 | 0.00 | 66 | 1016.2 |
| 20260508120116 | 54 | 252 | 3.0 | 8.0 | 0.00 | 0.00 | 0.00 | 68 | 1016.1 |
| 20260508114504 | 54 | 242 | 4.0 | 8.0 | 0.00 | 0.00 | 0.00 | 70 | 1016.0 |
| 20260508113130 | 54 | 255 | 3.0 | 10.0 | 0.00 | 0.00 | 0.00 | 70 | 1015.9 |
| 20260508111535 | 54 | 267 | 5.0 | 11.0 | 0.00 | 0.00 | 0.00 | 70 | 1015.9 |
| 20260508110101 | 56 | 339 | 3.0 | 10.0 | 0.00 | 0.00 | 0.00 | 69 | 1015.7 |
| 20260508104554 | 53 | 324 | 3.0 | 11.0 | 0.00 | 0.00 | 0.00 | 70 | 1015.8 |
| 20260508103115 | 54 | 223 | 3.0 | 11.0 | 0.00 | 0.00 | 0.00 | 68 | 1015.5 |
| 20260508101609 | 55 | 340 | 5.0 | 11.0 | 0.00 | 0.00 | 0.00 | 67 | 1015.5 |
| 20260508100120 | 54 | 212 | 4.0 | 11.0 | 0.00 | 0.00 | 0.00 | 71 | 1015.5 |
| 20260508094506 | 53 | 267 | 4.0 | 9.0 | 0.00 | 0.00 | 0.00 | 74 | 1015.3 |
| 20260508093126 | 51 | 246 | 4.0 | 9.0 | 0.00 | 0.00 | 0.00 | 76 | 1015.3 |
| 20260508091536 | 51 | 273 | 3.0 | 10.0 | 0.00 | 0.00 | 0.00 | 77 | 1015.3 |
| 20260508090012 | 51 | 325 | 4.0 | 10.0 | 0.00 | 0.00 | 0.00 | 79 | 1015.2 |
| 20260508084541 | 51 | 267 | 5.0 | 12.0 | 0.00 | 0.00 | 0.00 | 78 | 1015.1 |
| 20260508083106 | 51 | 270 | 4.0 | 10.0 | 0.00 | 0.00 | 0.00 | 79 | 1015.0 |
| 20260508081558 | 51 | 278 | 5.0 | 14.0 | 0.00 | 0.00 | 0.00 | 80 | 1014.8 |
| 20260508080112 | 51 | 256 | 4.0 | 10.0 | 0.00 | 0.00 | 0.00 | 81 | 1014.7 |
| 20260508074548 | 50 | 242 | 2.0 | 9.0 | 0.00 | 0.00 | 0.00 | 82 | 1014.6 |
| 20260508073104 | 50 | 261 | 2.0 | 8.0 | 0.00 | 0.00 | 0.00 | 82 | 1014.4 |
| 20260508071555 | 50 | 188 | 5.0 | 12.0 | 0.00 | 0.00 | 0.00 | 82 | 1014.2 |
| 20260508070114 | 50 | 250 | 5.0 | 12.0 | 0.00 | 0.00 | 0.00 | 83 | 1014.1 |
| 20260508064608 | 49 | 244 | 4.0 | 9.0 | 0.00 | 0.00 | 0.00 | 85 | 1014.0 |
| 20260508063140 | 49 | 216 | 5.0 | 10.0 | 0.00 | 0.00 | 0.00 | 85 | 1013.9 |
| 20260508061507 | 48 | 215 | 4.0 | 12.0 | 0.00 | 0.00 | 0.00 | 85 | 1013.8 |
| 20260508060008 | 48 | 155 | 4.0 | 10.0 | 0.00 | 0.00 | 0.00 | 85 | 1013.6 |
| 20260508054532 | 48 | 132 | 4.0 | 11.0 | 0.00 | 0.00 | 0.00 | 85 | 1013.4 |
| 20260508053008 | 48 | 213 | 4.0 | 10.0 | 0.00 | 0.00 | 0.00 | 85 | 1013.2 |
| 20260508051605 | 48 | 185 | 6.0 | 10.0 | 0.00 | 0.00 | 0.00 | 85 | 1013.0 |
| 20260508050100 | 47 | 159 | 5.0 | 10.0 | 0.00 | 0.00 | 0.00 | 85 | 1013.0 |
| 20260508044544 | 47 | 217 | 5.0 | 11.0 | 0.00 | 0.00 | 0.00 | 85 | 1012.8 |
| 20260508043110 | 47 | 199 | 5.0 | 12.0 | 0.00 | 0.00 | 0.00 | 85 | 1012.7 |
| 20260508041602 | 47 | 169 | 8.0 | 16.0 | 0.00 | 0.00 | 0.00 | 84 | 1012.5 |
| 20260508040130 | 47 | 234 | 5.0 | 12.0 | 0.00 | 0.00 | 0.00 | 84 | 1012.4 |
| 20260508034535 | 48 | 191 | 5.0 | 14.0 | 0.00 | 0.00 | 0.00 | 83 | 1012.4 |
| 20260508033110 | 48 | 211 | 7.0 | 15.0 | 0.00 | 0.00 | 0.00 | 83 | 1012.2 |
| 20260508031503 | 47 | 193 | 6.0 | 13.0 | 0.00 | 0.00 | 0.00 | 82 | 1012.3 |
| 20260508030016 | 47 | 157 | 6.0 | 20.0 | 0.00 | 0.00 | 0.00 | 82 | 1012.3 |
| 20260508024545 | 47 | 165 | 9.0 | 18.0 | 0.00 | 0.00 | 0.00 | 81 | 1012.2 |
| 20260508023107 | 47 | 143 | 9.0 | 15.0 | 0.00 | 0.00 | 0.00 | 79 | 1012.2 |